Meteopurmerend
purmerend
Purmerend - Baaienwijk



My webcam  My webcam


waarschuwing voor Onweer Meer informatie blitzortung!


Regen radar Meer informatie rain snow radar


Bezoek onze andere website:

CandyAppleRed WebdesignWebdesign Purmerend Candy Apple Red

MeteopurmerendBlog

Template documentation
and downloads



Onweer van: 26-07-2021 13:00 tot: 21:00 waarschuwing voor: Onweer niveau: Geel info button
Enkele onweersbuien, lokaal met hagel en veel neerslag in korte tijd.Kans op blikseminslag, hagel en veel neerslag in korte tijd.Verkeer en buitenactiviteiten kunnen hinder ondervinden.Mijd open water en open gebied, schuil niet onder bomen.Volg weerberichten en waarschuwingen.

15 daagse weersverwachting Hørsholm (DK)

  • Overzicht
  • Per uur
  • 15 dagen
  • Extra
  • Vergelijk
  • Kaarten
  • Dagkaart
  • Meer »
  • Info
  • Statistieken
  • Directe link
    Temp 6h Neerslag Wind  
 05:07     21:27    Daglengte: 16:20 Vandaag
20:00
24°
 
2
 05:09     21:26    Daglengte: 16:17 Morgen
02:00
20°
 
3
08:00
21°
0.2 mm
2
14:00
23°
4.8 mm
3
warningclass
20:00
21°
4.5 mm
4
 05:10     21:24    Daglengte: 16:14 Woensdag 28 Jul
02:00
18°
 
2
08:00
19°
 
3
14:00
22°
10.3 mm
4
20:00
19°
11.9 mm
4
 05:12     21:22    Daglengte: 16:10 Donderdag 29 Jul
02:00
17°
11.0 mm
4
08:00
17°
 
5
14:00
19°
18.9 mm
7
Locatie info
Region: Hovedstaden
Latitude: 55.8799°N
Longitude: 12.5067°E
29 masl
Postcode: 2970
Temp/Neerslag /Baro Onweer/Dauwpunt
    Temp Baro 1h Neerslag Dauwpunt Wind UV Bewolking  
 05:07     21:27    Daglengte: 16:20 Vandaag
17:00
25°
1011.2 hPa
45%
15.0°
3
Windvlaag: -0 m/s
63%
18:00
25°
1011.0 hPa
62%
15.3°
3
Windvlaag: -0.6 m/s
52%
19:00
25°
1010.9 hPa
25%
15.0°
3
Windvlaag: 0.9 m/s
45%
20:00
24°
1010.8 hPa
23%
15.8°
2
Windvlaag: 3.2 m/s
55%
21:00
23°
1010.7 hPa
11%
17.0°
2
Windvlaag: 4 m/s
55%
22:00
22°
1010.8 hPa
11%
16.4°
3
Windvlaag: 3.2 m/s
37%
23:00
21°
1010.7 hPa   16.4°
3
Windvlaag: 1.9 m/s
47%
 05:09     21:26    Daglengte: 16:17 Morgen
00:00
21°
1010.8 hPa   17.5°
3
Windvlaag: 1.6 m/s
65%
01:00
20°
1010.2 hPa   17.6°
3
Windvlaag: 2.5 m/s
64%
02:00
20°
1010.1 hPa
11%
17.8°
3
Windvlaag: 1.6 m/s
47%
03:00
20°
1010.0 hPa 0.2 mm
62%
18.1°
3
Windvlaag: -0.7 m/s
65%
04:00
20°
1009.7 hPa
61%
18.6°
2
Windvlaag: 0.4 m/s
67%
05:00
19°
1009.4 hPa
64%
18.7°
2
Windvlaag: 0.3 m/s
59%
06:00
20°
1009.0 hPa
61%
19.0°
2
Windvlaag: -0.2 m/s
76%
07:00
20°
1008.9 hPa
11%
18.7°
2
Windvlaag: 0.4 m/s
68%
08:00
21°
1008.9 hPa
61%
18.4°
2
Windvlaag: 2.2 m/s
77%
09:00
21°
1009.1 hPa
64%
18.9°
2
Windvlaag: 4.3 m/s
47%
10:00
22°
1009.2 hPa
62%
19.6°
2
Windvlaag: 4.8 m/s
32%
11:00
23°
1009.1 hPa 0.5 mm
64%
18.9°
3
Windvlaag: 5.7 m/s
40% warningclass
12:00
23°
1009.1 hPa 1.0 mm
68%
17.0°
3
Windvlaag: 5.8 m/s
34% warningclass
13:00
23°
1009.1 hPa 1.7 mm
74%
16.0°
3
Windvlaag: 4.7 m/s
65% warningclass
14:00
23°
1009.0 hPa 1.6 mm
76%
14.1°
3
Windvlaag: 4.7 m/s
14% warningclass
15:00
24°
1008.8 hPa 1.7 mm
76%
14.0°
3
Windvlaag: 6.1 m/s
64% warningclass
16:00
23°
1008.9 hPa 1.6 mm
80%
12.9°
3
Windvlaag: 6 m/s
18% warningclass
17:00
23°
1008.7 hPa
82%
14.2°
3
Windvlaag: 5.7 m/s
9%
18:00
23°
1008.5 hPa 1.2 mm
78%
14.5°
4
Windvlaag: 6.5 m/s
13% warningclass
19:00
22°
1008.4 hPa
33%
16.3°
4
Windvlaag: 6.5 m/s
14%
20:00
21°
1008.5 hPa
22%
17.0°
4
Windvlaag: 6.1 m/s
19%
21:00
21°
1008.8 hPa
17%
16.7°
3
Windvlaag: 6.1 m/s
37%
22:00
20°
1009.0 hPa
17%
16.5°
3
Windvlaag: 6.5 m/s
54%
23:00
19°
1009.3 hPa
14%
16.4°
3
Windvlaag: 6.3 m/s
55%
 05:10     21:24    Daglengte: 16:14 Woensdag 28 Jul
00:00
19°
1009.3 hPa
14%
16.3°
3
Windvlaag: 6.1 m/s
9%
01:00
18°
1009.0 hPa
14%
16.3°
2
Windvlaag: 6 m/s
6%
02:00
18°
1008.9 hPa
14%
16.2°
2
Windvlaag: 5.4 m/s
9%
03:00
17°
1008.6 hPa
14%
16.2°
2
Windvlaag: 4.6 m/s
17%
04:00
17°
1008.4 hPa
14%
16.2°
2
Windvlaag: 3.4 m/s
20%
05:00
17°
1008.2 hPa
14%
16.3°
2
Windvlaag: 3.6 m/s
61%
06:00
17°
1008.1 hPa
15%
16.6°
2
Windvlaag: 3.6 m/s
64%
07:00
18°
1008.0 hPa
71%
17.0°
2
Windvlaag: 5.2 m/s
59%
08:00
19°
1007.8 hPa
81%
17.5°
3
Windvlaag: 5.6 m/s
70%
09:00
20°
1007.8 hPa
82%
16.8°
3
Windvlaag: 5.4 m/s
74%
10:00
21°
1007.7 hPa
79%
15.2°
4
Windvlaag: 5.6 m/s
29%
11:00
20°
1007.4 hPa 2.5 mm
100%
14.6°
3
Windvlaag: 5.4 m/s
53%
12:00
21°
1007.1 hPa 2.6 mm
94%
15.4°
4
Windvlaag: 7.1 m/s
45%
13:00
21°
1006.9 hPa 2.7 mm
85%
13.4°
4
Windvlaag: 7.4 m/s
65%
14:00
22°
1006.4 hPa 2.6 mm
34%
12.2°
4
Windvlaag: 7.1 m/s
47%
15:00
22°
1006.3 hPa
31%
15.5°
4
Windvlaag: 6.9 m/s
74%
16:00
22°
1006.1 hPa 3.2 mm
74%
14.7°
4
Windvlaag: 7.7 m/s
37%
17:00
21°
1005.9 hPa 2.8 mm
99%
14.2°
4
Windvlaag: 7.5 m/s
74%
18:00
21°
1005.6 hPa 1.8 mm
100%
12.5°
4
Windvlaag: 7.7 m/s
25%
19:00
20°
1005.2 hPa 2.0 mm
100%
11.5°
3
Windvlaag: 6.6 m/s
34%
20:00
19°
1005.0 hPa 2.0 mm
100%
10.8°
4
Windvlaag: 6.5 m/s
59%
21:00
19°
1005.1 hPa 2.8 mm
100%
12.6°
3
Windvlaag: 5.5 m/s
62%
22:00
18°
1005.1 hPa 2.8 mm
100%
13.4°
3
Windvlaag: 6.3 m/s
80%
23:00
18°
1004.9 hPa 2.7 mm
100%
12.9°
4
Windvlaag: 6.3 m/s
93%
 05:12     21:22    Daglengte: 16:10 Donderdag 29 Jul
00:00
18°
1004.6 hPa 2.7 mm
92%
15.0°
4
Windvlaag: 7 m/s
30%
01:00
17°
1004.6 hPa
40%
15.4°
4
Windvlaag: 7.3 m/s
33%
02:00
17°
1004.4 hPa
32%
15.2°
4
Windvlaag: 6.8 m/s
22%
03:00
16°
1004.1 hPa
41%
15.1°
4
Windvlaag: 6.6 m/s
19%
04:00
16°
1003.9 hPa
80%
14.5°
4
Windvlaag: 6.2 m/s
31%
05:00
16°
1003.7 hPa
37%
15.0°
4
Windvlaag: 6.5 m/s
11%
06:00
16°
1003.4 hPa
37%
14.5°
4
Windvlaag: 6.7 m/s
8%
07:00
16°
1003.3 hPa
32%
13.5°
4
Windvlaag: 7.4 m/s
44%
08:00
17°
1003.0 hPa
40%
13.4°
5
Windvlaag: 8.7 m/s
41%
09:00
17°
1001.2 hPa
99%
10.6°
5
Windvlaag: 9.7 m/s
85%
10:00
18°
1001.0 hPa 2.8 mm
100%
9.8°
6
Windvlaag: 11.7 m/s
100%
11:00
18°
1001.0 hPa 3.1 mm
100%
10.5°
6
Windvlaag: 11.1 m/s
92%
12:00
17°
1000.8 hPa 3.8 mm
100%
11.8°
6
Windvlaag: 11.2 m/s
99%
13:00
19°
1000.6 hPa 3.5 mm
100%
9.4°
7
Windvlaag: 15.4 m/s
95%
14:00
19°
1000.4 hPa 3.1 mm
98%
5.3°
7
Windvlaag: 14.1 m/s
87%
Temp/Neerslag /Baro Onweer/Dauwpunt
    Temp Baro Neerslag Dauwpunt Wind Bewolking  
 05:07     21:27    Daglengte: 16:20 Vandaag
17:00
25°
1011.2 hPa   15.0°
3
63%
20:00
24°
1010.8 hPa   15.8°
2
55%
23:00
21°
1010.7 hPa   16.4°
3
47%
 05:09     21:26    Daglengte: 16:17 Morgen
02:00
20°
1010.1 hPa   17.8°
3
47%
05:00
19°
1009.4 hPa 0.2 mm 18.7°
2
59%
08:00
21°
1008.9 hPa   18.4°
2
77%
11:00
23°
1009.1 hPa 0.5 mm 18.9°
3
40% warningclass
14:00
23°
1009.0 hPa 4.3 mm 14.1°
3
14% warningclass
17:00
23°
1008.7 hPa 3.3 mm 14.2°
3
9% warningclass
20:00
21°
1008.5 hPa 1.2 mm 17.0°
4
19%
23:00
19°
1009.3 hPa   16.4°
3
55%
 05:10     21:24    Daglengte: 16:14 Woensdag 28 Jul
02:00
18°
1008.9 hPa   16.2°
2
9%
05:00
17°
1008.2 hPa   16.3°
2
61%
08:00
19°
1007.8 hPa   17.5°
3
70%
11:00
20°
1007.4 hPa 2.5 mm 14.6°
3
53%
14:00
22°
1006.4 hPa 7.8 mm 12.2°
4
47%
17:00
21°
1005.9 hPa 6.1 mm 14.2°
4
74%
20:00
19°
1005.0 hPa 5.9 mm 10.8°
4
59%
23:00
18°
1004.9 hPa 8.2 mm 12.9°
4
93%
 05:12     21:22    Daglengte: 16:10 Donderdag 29 Jul
02:00
17°
1004.4 hPa 2.7 mm 15.2°
4
22%
05:00
16°
1003.7 hPa   15.0°
4
11%
08:00
17°
1003.0 hPa   13.4°
5
41%
11:00
18°
1001.0 hPa 5.9 mm 10.5°
6
92%
14:00
19°
1000.4 hPa 10.4 mm 5.3°
7
87%
17:00
16°
1000.8 hPa 11.0 mm 12.3°
9
1%
20:00
16°
1001.1 hPa 12.3 mm 12.8°
10
1%
23:00
15°
1001.7 hPa 12.8 mm 12.4°
8
1%
 05:14     21:20    Daglengte: 16:06 Vrijdag 30 Jul
02:00
15°
1000.3 hPa 13.0 mm 13.1°
7
1%
05:00
15°
999.2 hPa 13.5 mm 13.1°
7
1%
08:00
16°
999.9 hPa 14.2 mm 13.8°
8
1%
11:00
19°
1000.8 hPa 15.0 mm 15.7°
9
1%
14:00
22°
1001.0 hPa 15.8 mm 14.3°
10
1%
17:00
21°
1002.0 hPa 15.9 mm 13.9°
10
1%
20:00
18°
1002.5 hPa 15.9 mm 12.9°
9
1%
23:00
18°
1003.0 hPa 16.0 mm 13.3°
8
1%
 05:16     21:18    Daglengte: 16:02 Zaterdag 31 Jul
02:00
16°
1003.8 hPa 16.0 mm 12.2°
7
1%
05:00
15°
1003.3 hPa 16.0 mm 12.0°
5
1%
08:00
17°
1003.7 hPa 16.1 mm 13.4°
6
1%
11:00
19°
1003.7 hPa 16.2 mm 12.1°
5
1%
14:00
21°
1002.7 hPa 16.2 mm 12.5°
5
1%
17:00
19°
1001.9 hPa 18.2 mm 14.0°
5
1%
20:00
18°
1000.5 hPa 21.8 mm 15.3°
4
1%
23:00
15°
1000.3 hPa 22.1 mm 13.7°
4
0%
 05:18     21:16    Daglengte: 15:58 Zondag 01 Aug
02:00
14°
999.6 hPa 22.2 mm 13.1°
4
0%
05:00
14°
999.7 hPa 22.9 mm 12.4°
4
1%
08:00
16°
1000.9 hPa 22.9 mm 11.3°
5
1%
11:00
18°
1001.6 hPa 23.0 mm 10.8°
6
1%
14:00
20°
1002.0 hPa 23.1 mm 10.0°
6
1%
17:00
19°
1002.2 hPa 23.3 mm 9.2°
6
1%
20:00
18°
1002.3 hPa 23.3 mm 9.7°
6
1%
23:00
15°
1002.6 hPa 23.4 mm 8.3°
5
1%
 05:20     21:14    Daglengte: 15:54 Maandag 02 Aug
02:00
14°
1002.8 hPa 23.4 mm 8.7°
6
1%
05:00
13°
1002.5 hPa 23.6 mm 8.9°
6
0%
08:00
15°
1002.8 hPa 23.9 mm 9.6°
7
1%
11:00
16°
1003.9 hPa 24.3 mm 9.9°
9
1%
14:00
17°
1004.9 hPa 48.8 mm 9.6°
8
1%
20:00
16°
1006.4 hPa 49.4 mm 9.1°
8
1%
 05:21     21:12    Daglengte: 15:51 Dinsdag 03 Aug
02:00
14°
1008.6 hPa 50.5 mm 8.9°
7
1%
08:00
15°
1009.8 hPa 51.7 mm 10.1°
6
1%
14:00
19°
1010.1 hPa 53.7 mm 9.0°
8
1%
20:00
18°
1010.1 hPa 53.9 mm 9.6°
5
1%
 05:23     21:10    Daglengte: 15:47 Woensdag 04 Aug
02:00
13°
1010.9 hPa 54.0 mm 10.4°
4
0%
08:00
16°
1009.2 hPa 54.0 mm 12.9°
6
1%
14:00
19°
1006.9 hPa 54.5 mm 13.5°
8
1%
20:00
18°
1004.7 hPa 57.0 mm 14.1°
7
1%
 05:25     21:08    Daglengte: 15:43 Donderdag 05 Aug
02:00
14°
1003.2 hPa 59.4 mm 13.2°
5
1%
08:00
16°
1001.3 hPa 59.6 mm 13.3°
7
0%
14:00
19°
1008.9 hPa 1.4 mm 12.0°
3
71%
20:00
18°
1007.9 hPa 1.0 mm 12.5°
2
77%
 05:27     21:06    Daglengte: 15:39 Vrijdag 06 Aug
02:00
16°
1007.4 hPa 0.5 mm 12.6°
2
68%
08:00
17°
1006.3 hPa 0.9 mm 12.7°
2
77%
14:00
20°
1005.7 hPa 1.2 mm 12.7°
2
80%
20:00
18°
1004.6 hPa 1.6 mm 13.3°
2
73%
 05:29     21:03    Daglengte: 15:34 Zaterdag 07 Aug
02:00
16°
1004.5 hPa 0.5 mm 12.8°
2
64%
08:00
16°
1004.1 hPa 0.6 mm 13.0°
1
68%
14:00
19°
1004.1 hPa 1.5 mm 12.9°
1
63%
20:00
18°
1003.9 hPa 1.2 mm 12.9°
2
67%
 05:31     21:01    Daglengte: 15:30 Zondag 08 Aug
02:00
16°
1004.8 hPa 0.3 mm 12.8°
2
61%
08:00
16°
1005.0 hPa 0.6 mm 12.9°
3
58%
14:00
19°
1005.8 hPa 1.2 mm 12.7°
3
66%
20:00
18°
1006.2 hPa 1.9 mm 13.1°
3
63%
 05:33     20:59    Daglengte: 15:26 Maandag 09 Aug
02:00
15°
1007.2 hPa 0.8 mm 12.4°
3
54%
08:00
16°
1007.3 hPa 0.3 mm 12.3°
2
60%
14:00
19°
1008.2 hPa 1.0 mm 12.1°
4
66%
20:00
18°
1008.6 hPa 1.3 mm 12.8°
3
62%
 05:35     20:57    Daglengte: 15:22 Dinsdag 10 Aug
02:00
16°
1009.7 hPa 0.8 mm 12.6°
4
70%
08:00
16°
1010.0 hPa 0.6 mm 12.4°
4
73%
14:00
19°
1010.8 hPa 0.8 mm 12.0°
4
66%
  CAPE Lifted Index Hail Supercell Tornado SRH 3km CL BTM PRES CL TOP PRES Swiss DWD icon SMHI TS
 05:07     21:27    Daglengte: 16:20 Vandaag
17:00 194 J/kg -1.3 K 0 % 0 % 0 % 0 m²/s² 0 0 -0.31 3
18:00 238 J/kg -1.4 K 0 % 0 % 0 % 0 m²/s² 0 0 -0.14 3
19:00 274 J/kg -1.5 K 0 % 0 % 0 % 0 m²/s² 0 0 0 3
20:00 410 J/kg -2.0 K 0 % 0 % 0 % 0 m²/s² 0 0 -0.68 3
21:00 300 J/kg -1.5 K 0 % 0 % 0 % 0 m²/s² 0 0 -0.18 3
22:00 112 J/kg -0.4 K 0 % 0 % 0 % 0 m²/s² 0 0 0.62 3
23:00 81 J/kg -0.7 K 0 % 0 % 0 % 0 m²/s² 0 0 0.35 3
 05:09     21:26    Daglengte: 16:17 Morgen
00:00 200 J/kg -0.8 K 0 % 0 % 0 % 0 m²/s² 0 0 0.43 3
01:00 180 J/kg -0.7 K 0 % 0 % 0 % 0 m²/s² 0 0 0.53 3
02:00 241 J/kg -1.3 K 0 % 0 % 0 % 0 m²/s² 0 0 0.02 3
03:00 99 J/kg -0.7 K 0 % 0 % 0 % 0 m²/s² 0 0 1.22 80
04:00 215 J/kg -1.6 K 0 % 0 % 0 % 0 m²/s² 0 0 0.17 3
05:00 281 J/kg -1.7 K 0 % 0 % 0 % 0 m²/s² 0 0 0.13 80
06:00 367 J/kg -2.1 K 0 % 0 % 0 % 0 m²/s² 0 0 -0.27 3
07:00 495 J/kg -2.5 K 0 % 0 % 0 % 0 m²/s² 0 0 -0.46 3
08:00 634 J/kg -3.1 K 0 % 0 % 0 % 0 m²/s² 0 0 -0.79 3
09:00 998 J/kg -3.9 K 0 % 0 % 0 % 0 m²/s² 0 0 -1.53 80
10:00 1143 J/kg -4.3 K 0 % 0 % 0 % 0 m²/s² 0 0 -1.93 3
11:00 1314 J/kg -4.5 K 0 % 0 % 0 % 0 m²/s² 0 0 -2.28 3
12:00 1451 J/kg -4.7 K 0 % 0 % 0 % 0 m²/s² 0 0 -2.66 80
13:00 1539 J/kg -4.5 K 0 % 0 % 0 % 0 m²/s² 0 0 -3.24 80
14:00 1565 J/kg -4.6 K 0 % 0 % 0 % 0 m²/s² 0 0 -2.89 80
15:00 1531 J/kg -4.8 K 0 % 0 % 0 % 0 m²/s² 0 0 -3.09 80
16:00 1507 J/kg -5.4 K 0 % 0 % 0 % 0 m²/s² 0 0 -3.51 2
17:00 1344 J/kg -4.9 K 0 % 0 % 0 % 0 m²/s² 0 0 -2.65 2
18:00 1224 J/kg -4.6 K 0 % 0 % 0 % 0 m²/s² 0 0 -2.56 2
19:00 1112 J/kg -4.0 K 0 % 0 % 0 % 0 m²/s² 0 0 -2.23 2
20:00 679 J/kg -2.8 K 0 % 0 % 0 % 0 m²/s² 0 0 -1.15 2
21:00 546 J/kg -2.1 K 0 % 0 % 0 % 0 m²/s² 0 0 -0.21 3
22:00 406 J/kg -1.4 K 0 % 0 % 0 % 0 m²/s² 0 0 0.7 3
23:00 179 J/kg 0.2 K 0 % 0 % 0 % 0 m²/s² 0 0 2.57 3
 05:10     21:24    Daglengte: 16:14 Woensdag 28 Jul
00:00 77 J/kg 1.0 K 0 % 0 % 0 % 0 m²/s² 0 0 4.24 0
01:00 78 J/kg 0.5 K 0 % 0 % 0 % 0 m²/s² 0 0 4.19 0
02:00 81 J/kg 0.1 K 0 % 0 % 0 % 0 m²/s² 0 0 3.49 0
03:00 78 J/kg -0.1 K 0 % 0 % 0 % 0 m²/s² 0 0 2.96 2
04:00 118 J/kg -0.4 K 0 % 0 % 0 % 0 m²/s² 0 0 2.33 1
05:00 280 J/kg -0.6 K 0 % 0 % 0 % 0 m²/s² 0 0 1.62 3
06:00 166 J/kg -0.4 K 0 % 0 % 0 % 0 m²/s² 0 0 1.49 3
07:00 72 J/kg 0.2 K 0 % 0 % 0 % 0 m²/s² 0 0 0.38 3
08:00 18 J/kg 1.1 K 0 % 0 % 0 % 0 m²/s² 0 0 1.49 3
09:00 82 J/kg -0.1 K 0 % 0 % 0 % 0 m²/s² 0 0 0.41 80
10:00 138 J/kg -0.6 K 0 % 0 % 0 % 0 m²/s² 0 0 0.09 3
11:00 215 J/kg -1.1 K 0 % 0 % 0 % 0 m²/s² 0 0 -0.62 3
12:00 494 J/kg -2.2 K 0 % 0 % 0 % 0 m²/s² 0 0 -1.54 3
13:00 399 J/kg -1.7 K 0 % 0 % 0 % 0 m²/s² 0 0 -0.71 3
14:00 322 J/kg -1.5 K 0 % 0 % 0 % 0 m²/s² 0 0 -0.42 3
15:00 769 J/kg -3.0 K 0 % 0 % 0 % 0 m²/s² 0 0 -2.25 3
16:00 390 J/kg -1.5 K 0 % 0 % 0 % 0 m²/s² 0 0 -0.51 2
17:00 338 J/kg -1.0 K 0 % 0 % 0 % 0 m²/s² 0 0 -0.1 3
18:00 244 J/kg -0.5 K 0 % 0 % 0 % 0 m²/s² 0 0 1.09 3
19:00 137 J/kg -0.4 K 0 % 0 % 0 % 0 m²/s² 0 0 1.1 80
20:00 81 J/kg -0.3 K 0 % 0 % 0 % 0 m²/s² 0 0 1.89 80
21:00 259 J/kg -1.4 K 0 % 0 % 0 % 0 m²/s² 0 0 0.79 3
22:00 540 J/kg -2.2 K 0 % 0 % 0 % 0 m²/s² 0 0 -0.76 80
23:00 421 J/kg -2.1 K 0 % 0 % 0 % 0 m²/s² 0 0 -1.26 3
 05:12     21:22    Daglengte: 16:10 Donderdag 29 Jul
00:00 305 J/kg -1.8 K 0 % 0 % 0 % 0 m²/s² 0 0 0.9 2
01:00 341 J/kg -1.9 K 0 % 0 % 0 % 0 m²/s² 0 0 0.5 3
02:00 423 J/kg -2.4 K 0 % 0 % 0 % 0 m²/s² 0 0 -1.71 2
03:00 434 J/kg -2.5 K 0 % 0 % 0 % 0 m²/s² 0 0 -1.12 2
04:00 468 J/kg -2.9 K 0 % 0 % 0 % 0 m²/s² 0 0 -2.03 3
05:00 396 J/kg -1.3 K 0 % 0 % 0 % 0 m²/s² 0 0 -0.34 2
06:00 182 J/kg 0.2 K 0 % 0 % 0 % 0 m²/s² 0 0 4.85 2
07:00 208 J/kg 0.4 K 0 % 0 % 0 % 0 m²/s² 0 0 3.79 3
08:00 325 J/kg -0.1 K 0 % 0 % 0 % 0 m²/s² 0 0 1.79 2
09:00 158 J/kg 1.4 K 0 % 0 % 0 % 0 m²/s² 0 0 1.58 3
10:00 282 J/kg 0.8 K 0 % 0 % 0 % 0 m²/s² 0 0 1.4 3
11:00 364 J/kg 0.1 K 0 % 0 % 0 % 0 m²/s² 0 0 1.57 80
12:00 387 J/kg 0.0 K 0 % 0 % 0 % 0 m²/s² 0 0 1.77 80
13:00 271 J/kg 1.9 K 0 % 0 % 0 % 0 m²/s² 0 0 5.44 3
14:00 112 J/kg 3.7 K 0 % 0 % 0 % 0 m²/s² 0 0 8.02 3
Temp Baro Wind Neerslag
  EWN Forecast EWN WRFDA DWD ICON FMI HIRLAM MET Norway GFS
 05:07     21:27    Daglengte: 16:20 Vandaag
17:00 25.0° 1011.2 hPa 3.0 m/s 0.0 mm 27.8° 1010.6 hPa 6.2 m/s 0.0 mm 23.3° 1011.7 hPa 2.9 m/s 0.7 mm 25.8° 1010.9 hPa 3.0 m/s 0.0 mm 26.3° 1011.0 hPa 6.6 m/s
20:00 24.4° 1010.8 hPa 2.3 m/s 0.0 mm 24.9° 1010.6 hPa 4.4 m/s 0.1 mm 23.1° 1010.8 hPa 2.3 m/s 0.1 mm 24.6° 1010.7 hPa 2.1 m/s 0.0 mm 23.6° 1010.0 hPa 4.3 m/s
23:00 21.2° 1010.7 hPa 2.6 m/s 0.0 mm 21.4° 1010.1 hPa 5.2 m/s 0.1 mm 20.9° 1011.1 hPa 2.5 m/s 0.0 mm 21.7° 1010.6 hPa 3.2 m/s 0.0 mm 20.8° 1010.7 hPa 3.1 m/s
 05:09     21:26    Daglengte: 16:17 Morgen
02:00 20.0° 1010.1 hPa 3.1 m/s 0.0 mm 18.8° 1009.8 hPa 3.9 m/s 0.1 mm 20.1° 1010.1 hPa 1.9 m/s 0.0 mm 20.6° 1009.3 hPa 3.9 m/s 0.0 mm 18.2° 1010.1 hPa 2.7 m/s
05:00 19.5° 1009.4 hPa 2.5 m/s 0.2 mm 18.0° 1008.6 hPa 3.4 m/s 0.1 mm 19.6° 1010.1 hPa 1.3 m/s 0.9 mm 20.2° 1008.5 hPa 3.3 m/s 0.0 mm 18.1° 1009.2 hPa 2.2 m/s
08:00 20.6° 1008.9 hPa 2.3 m/s 0.0 mm 20.2° 1007.7 hPa 3.3 m/s 0.1 mm 20.5° 1009.7 hPa 2.0 m/s 0.2 mm 21.4° 1008.2 hPa 4.3 m/s 0.0 mm 20.6° 1009.1 hPa 2.8 m/s
11:00 23.1° 1009.1 hPa 2.7 m/s 0.5 mm 24.6° 1007.9 hPa 3.2 m/s 0.1 mm 22.3° 1009.5 hPa 2.3 m/s 1.6 mm 22.9° 1008.2 hPa 3.6 m/s 0.0 mm 24.5° 1009.0 hPa 3.2 m/s
14:00 22.8° 1009.0 hPa 3.1 m/s 4.3 mm 23.1° 1008.1 hPa 3.2 m/s 4.7 mm 21.9° 1009.4 hPa 2.9 m/s 6.3 mm 25.5° 1008.2 hPa 3.7 m/s 0.0 mm 25.0° 1009.1 hPa 4.1 m/s
17:00 23.2° 1008.7 hPa 3.2 m/s 3.3 mm 24.5° 1007.3 hPa 0.7 m/s 11.0 mm 22.4° 1008.9 hPa 2.7 m/s 3.4 mm 24.5° 1008.1 hPa 4.4 m/s 0.0 mm 23.8° 1008.9 hPa 3.2 m/s
20:00 21.4° 1008.5 hPa 3.7 m/s 1.2 mm 22.1° 1007.5 hPa 3.5 m/s 15.6 mm 21.3° 1009.1 hPa 3.1 m/s 0.5 mm 22.2° 1008.0 hPa 4.0 m/s 0.0 mm 21.5° 1008.8 hPa 4.4 m/s
23:00 19.0° 1009.3 hPa 2.8 m/s 0.0 mm 18.7° 1008.2 hPa 2.3 m/s 17.7 mm 19.0° 1009.4 hPa 1.5 m/s 0.0 mm 19.3° 1009.1 hPa 3.0 m/s 0.0 mm 18.0° 1009.9 hPa 3.2 m/s
 05:10     21:24    Daglengte: 16:14 Woensdag 28 Jul
02:00 17.6° 1008.9 hPa 2.4 m/s 0.0 mm 17.5° 1007.6 hPa 2.5 m/s 17.7 mm 17.5° 1009.2 hPa 2.3 m/s 0.0 mm 17.5° 1008.9 hPa 2.0 m/s 0.0 mm 17.2° 1009.7 hPa 2.6 m/s
05:00 17.1° 1008.2 hPa 1.9 m/s 0.0 mm 16.5° 1006.9 hPa 2.4 m/s 17.7 mm 16.9° 1008.6 hPa 1.4 m/s 0.0 mm 17.2° 1008.4 hPa 1.9 m/s 0.0 mm 16.5° 1008.6 hPa 2.6 m/s
08:00 18.9° 1007.8 hPa 2.8 m/s 0.0 mm 17.0° 1006.6 hPa 2.6 m/s 18.5 mm 19.1° 1007.8 hPa 1.6 m/s 0.1 mm 19.5° 1008.3 hPa 2.9 m/s 0.0 mm 19.8° 1008.1 hPa 4.1 m/s
11:00 20.1° 1007.4 hPa 3.2 m/s 2.5 mm 20.1° 1006.1 hPa 3.2 m/s 20.3 mm 20.6° 1007.5 hPa 3.8 m/s 1.6 mm 23.4° 1007.7 hPa 4.4 m/s
14:00 21.5° 1006.4 hPa 4.1 m/s 7.8 mm 23.1° 1004.9 hPa 5.0 m/s 22.2 mm 21.3° 1006.5 hPa 4.0 m/s 0.1 mm 23.4° 1007.3 hPa 5.0 m/s
17:00 21.5° 1005.9 hPa 4.1 m/s 6.1 mm 21.7° 1005.6 hPa 4.1 m/s 22.8 mm 21.6° 1005.8 hPa 4.1 m/s 0.1 mm 21.3° 1007.0 hPa 4.8 m/s
20:00 19.5° 1005.0 hPa 3.5 m/s 5.9 mm 22.0° 1004.8 hPa 3.8 m/s 22.8 mm 19.1° 1004.6 hPa 3.4 m/s 2.2 mm 20.6° 1006.5 hPa 5.3 m/s
23:00 18.2° 1004.9 hPa 4.1 m/s 8.2 mm 19.8° 1004.8 hPa 5.0 m/s 22.8 mm 18.0° 1003.8 hPa 4.1 m/s 1.0 mm 16.8° 1006.7 hPa 4.4 m/s
 05:12     21:22    Daglengte: 16:10 Donderdag 29 Jul
02:00 16.7° 1004.4 hPa 3.7 m/s 2.7 mm 16.3° 1004.5 hPa 3.2 m/s 22.8 mm 16.7° 1002.9 hPa 3.6 m/s 0.3 mm 15.7° 1005.8 hPa 4.1 m/s
05:00 16.0° 1003.7 hPa 3.9 m/s 0.0 mm 16.1° 1003.8 hPa 3.7 m/s 23.0 mm 15.9° 1002.1 hPa 3.9 m/s 0.1 mm 15.2° 1004.5 hPa 4.3 m/s
08:00 17.2° 1003.0 hPa 5.0 m/s 0.0 mm 18.3° 1003.4 hPa 5.7 m/s 23.2 mm 16.5° 1001.0 hPa 4.6 m/s 0.0 mm 16.8° 1002.9 hPa 6.4 m/s
11:00 17.6° 1001.0 hPa 5.8 m/s 5.9 mm 19.7° 1002.5 hPa 7.4 m/s 23.3 mm 17.1° 1000.6 hPa 5.5 m/s 1.1 mm 17.5° 1002.4 hPa 8.9 m/s
14:00 18.9° 1000.4 hPa 7.1 m/s 10.4 mm 21.6° 1001.6 hPa 10.0 m/s 26.8 mm 18.2° 1000.1 hPa 6.4 m/s 2.2 mm 18.8° 1002.1 hPa 10.3 m/s
17:00 16.1° 1000.8 hPa 9.4 m/s 11.0 mm 16.1° 1000.8 hPa 9.4 m/s 11.0 mm
20:00 16.4° 1001.1 hPa 10.5 m/s 12.3 mm 16.4° 1001.1 hPa 10.5 m/s 12.3 mm
23:00 15.1° 1001.7 hPa 8.2 m/s 12.8 mm 15.1° 1001.7 hPa 8.2 m/s 12.8 mm
 05:14     21:20    Daglengte: 16:06 Vrijdag 30 Jul
02:00 14.9° 1000.3 hPa 7.3 m/s 13.0 mm 14.9° 1000.3 hPa 7.3 m/s 13.0 mm
05:00 15.2° 999.2 hPa 7.3 m/s 13.5 mm 15.2° 999.2 hPa 7.3 m/s 13.5 mm
08:00 16.3° 999.9 hPa 8.4 m/s 14.2 mm 16.3° 999.9 hPa 8.4 m/s 14.2 mm
11:00 19.3° 1000.8 hPa 9.0 m/s 15.0 mm 19.3° 1000.8 hPa 9.0 m/s 15.0 mm
14:00 21.5° 1001.0 hPa 10.4 m/s 15.8 mm 21.5° 1001.0 hPa 10.4 m/s 15.8 mm
17:00 20.6° 1002.0 hPa 10.0 m/s 15.9 mm 20.6° 1002.0 hPa 10.0 m/s 15.9 mm
20:00 18.2° 1002.5 hPa 9.1 m/s 15.9 mm 18.2° 1002.5 hPa 9.1 m/s 15.9 mm
23:00 17.6° 1003.0 hPa 8.3 m/s 16.0 mm 17.6° 1003.0 hPa 8.3 m/s 16.0 mm
 05:16     21:18    Daglengte: 16:02 Zaterdag 31 Jul
02:00 16.3° 1003.8 hPa 7.1 m/s 16.0 mm 16.3° 1003.8 hPa 7.1 m/s 16.0 mm
05:00 15.4° 1003.3 hPa 5.4 m/s 16.0 mm 15.4° 1003.3 hPa 5.4 m/s 16.0 mm
08:00 17.2° 1003.7 hPa 5.8 m/s 16.1 mm 17.2° 1003.7 hPa 5.8 m/s 16.1 mm
11:00 19.2° 1003.7 hPa 5.5 m/s 16.2 mm 19.2° 1003.7 hPa 5.5 m/s 16.2 mm
14:00 21.0° 1002.7 hPa 5.1 m/s 16.2 mm 21.0° 1002.7 hPa 5.1 m/s 16.2 mm
17:00 19.1° 1001.9 hPa 4.8 m/s 18.2 mm 19.1° 1001.9 hPa 4.8 m/s 18.2 mm
20:00 17.8° 1000.5 hPa 4.3 m/s 21.8 mm 17.8° 1000.5 hPa 4.3 m/s 21.8 mm
23:00 14.8° 1000.3 hPa 4.4 m/s 22.1 mm 14.8° 1000.3 hPa 4.4 m/s 22.1 mm
 05:18     21:16    Daglengte: 15:58 Zondag 01 Aug
02:00 14.0° 999.6 hPa 3.7 m/s 22.2 mm 14.0° 999.6 hPa 3.7 m/s 22.2 mm
05:00 14.0° 999.7 hPa 4.3 m/s 22.9 mm 14.0° 999.7 hPa 4.3 m/s 22.9 mm
08:00 15.7° 1000.9 hPa 5.0 m/s 22.9 mm 15.7° 1000.9 hPa 5.0 m/s 22.9 mm
11:00 17.6° 1001.6 hPa 5.7 m/s 23.0 mm 17.6° 1001.6 hPa 5.7 m/s 23.0 mm
14:00 19.5° 1002.0 hPa 6.2 m/s 23.1 mm 19.5° 1002.0 hPa 6.2 m/s 23.1 mm
17:00 19.3° 1002.2 hPa 6.3 m/s 23.3 mm 19.3° 1002.2 hPa 6.3 m/s 23.3 mm
20:00 17.5° 1002.3 hPa 5.5 m/s 23.3 mm 17.5° 1002.3 hPa 5.5 m/s 23.3 mm
23:00 15.4° 1002.6 hPa 5.2 m/s 23.4 mm 15.4° 1002.6 hPa 5.2 m/s 23.3 mm
 05:20     21:14    Daglengte: 15:54 Maandag 02 Aug
02:00 13.9° 1002.8 hPa 5.9 m/s 23.4 mm 13.9° 1002.8 hPa 5.9 m/s 23.4 mm
05:00 13.2° 1002.5 hPa 6.1 m/s 23.6 mm 13.2° 1002.5 hPa 6.1 m/s 23.6 mm
08:00 14.6° 1002.8 hPa 7.4 m/s 23.9 mm 14.6° 1002.8 hPa 7.4 m/s 23.9 mm
11:00 15.8° 1003.9 hPa 8.5 m/s 24.3 mm 15.7° 1003.9 hPa 8.5 m/s 24.3 mm
14:00 17.3° 1004.9 hPa 8.2 m/s 24.5 mm 17.3° 1004.9 hPa 8.2 m/s 24.5 mm
20:00 16.4° 1006.4 hPa 8.0 m/s 24.8 mm 16.4° 1006.4 hPa 8.0 m/s 24.8 mm
 05:21     21:12    Daglengte: 15:51 Dinsdag 03 Aug
02:00 14.0° 1008.6 hPa 6.9 m/s 25.4 mm 14.0° 1008.6 hPa 6.9 m/s 25.4 mm
08:00 14.8° 1009.8 hPa 5.7 m/s 26.0 mm 14.8° 1009.8 hPa 5.7 m/s 26.0 mm
14:00 19.0° 1010.1 hPa 7.7 m/s 26.9 mm 19.0° 1010.1 hPa 7.7 m/s 26.9 mm
20:00 18.0° 1010.1 hPa 4.6 m/s 27.0 mm 18.0° 1010.1 hPa 4.6 m/s 27.0 mm
 05:23     21:10    Daglengte: 15:47 Woensdag 04 Aug
02:00 13.4° 1010.9 hPa 4.1 m/s 27.0 mm 13.4° 1010.9 hPa 4.1 m/s 27.0 mm
08:00 16.1° 1009.2 hPa 5.8 m/s 27.0 mm 16.1° 1009.2 hPa 5.8 m/s 27.0 mm
14:00 19.0° 1006.9 hPa 8.2 m/s 27.4 mm 19.0° 1006.9 hPa 8.2 m/s 27.4 mm
20:00 18.2° 1004.7 hPa 7.0 m/s 28.7 mm 18.2° 1004.7 hPa 7.0 m/s 28.7 mm
 05:25     21:08    Daglengte: 15:43 Donderdag 05 Aug
02:00 14.4° 1003.2 hPa 5.2 m/s 29.7 mm 14.4° 1003.2 hPa 5.2 m/s 29.7 mm
08:00 16.4° 1001.3 hPa 6.9 m/s 29.8 mm 16.4° 1001.3 hPa 6.9 m/s 29.8 mm
14:00 19.3° 1008.9 hPa 3.2 m/s 1.4 mm
20:00 18.2° 1007.9 hPa 2.0 m/s 1.0 mm
 05:27     21:06    Daglengte: 15:39 Vrijdag 06 Aug
02:00 16.2° 1007.4 hPa 1.7 m/s 0.5 mm
08:00 16.7° 1006.3 hPa 1.5 m/s 0.9 mm
14:00 19.5° 1005.7 hPa 2.4 m/s 1.2 mm
20:00 18.3° 1004.6 hPa 1.7 m/s 1.6 mm
 05:29     21:03    Daglengte: 15:34 Zaterdag 07 Aug
02:00 15.9° 1004.5 hPa 1.5 m/s 0.5 mm
08:00 16.4° 1004.1 hPa 1.2 m/s 0.6 mm
14:00 19.0° 1004.1 hPa 1.3 m/s 1.5 mm
20:00 17.9° 1003.9 hPa 1.5 m/s 1.2 mm
 05:31     21:01    Daglengte: 15:30 Zondag 08 Aug
02:00 15.7° 1004.8 hPa 2.1 m/s 0.3 mm
08:00 16.1° 1005.0 hPa 2.6 m/s 0.6 mm
14:00 19.1° 1005.8 hPa 3.3 m/s 1.2 mm
20:00 17.9° 1006.2 hPa 3.0 m/s 1.9 mm
 05:33     20:59    Daglengte: 15:26 Maandag 09 Aug
02:00 15.5° 1007.2 hPa 2.9 m/s 0.8 mm
08:00 15.9° 1007.3 hPa 2.3 m/s 0.3 mm
14:00 18.7° 1008.2 hPa 3.7 m/s 1.0 mm
20:00 17.6° 1008.6 hPa 3.4 m/s 1.3 mm
 05:35     20:57    Daglengte: 15:22 Dinsdag 10 Aug
02:00 15.7° 1009.7 hPa 3.8 m/s 0.8 mm
08:00 16.0° 1010.0 hPa 3.7 m/s 0.6 mm
14:00 18.8° 1010.8 hPa 4.0 m/s 0.8 mm
FMI Hirlam - 7.5 km EWN WRFDA - 12 km DWD ICON - 7 km GFS - 25 km Basiskaart






























































Updatetijd (Europe/Amsterdam) Resolutie Lengte Stap
FMI Hirlam 14:00, 20:00, 02:00, 08:00 7.5 km 49h 1h
EWN WRFDA 10:30, 16:30, 22:30, 04:30 12 km 73h 1h
DWD ICON 11:45, 17:45, 23:45, 05:45 7 km 75h 1h
GFS 14:15, 20:15, 02:15, 08:15 25 km 237h 3h
30+ mm
25-30 mm
20-25 mm
15-20 mm
10-15 mm
6-10 mm
4-6 mm
2-4 mm
1-2 mm
0.5-1 mm
0.2-0.5 mm
0.1-0.2 mm
30+ mm
25-30 mm
20-25 mm
15-20 mm
10-15 mm
6-10 mm
4-6 mm
2-4 mm
1-2 mm
0.5-1 mm
0.2-0.